Regional Weather Roundup
Issued by NWS Green Bay, WI

Home | Current Version | Previous Version | Graphics & Text | Print | Product List | Glossary Off
Versions: 1 2 3 4 5 6 7 8 9 10 11 12 13 14 15 16 17 18 19 20 21 22 23 24 25 26 27 28 29 30 31 32 33 34 35 36 37 38 39 40 41 42 43 44 45 46 47 48 49 50

000
ASUS43 KGRB 290711
RWRGRB

NORTH-CENTRAL AND NORTHEAST WISCONSIN REGIONAL WEATHER ROUNDUP
NATIONAL WEATHER SERVICE GREEN BAY WI
200 AM CDT FRI JUL 29 2016

WIZ005-009-010>012-018-019-290800-
NORTH CENTRAL WISCONSIN

CITY           SKY/WX    TMP DP  RH WIND       PRES   REMARKS
IRONWOOD       CLEAR     45  45 100 CALM      30.09S
MANITOWISH WTR CLEAR     48  48 100 CALM      30.10S
ARBOR VITAE    CLEAR     52  50  93 CALM      30.10R
EAGLE RIVER    CLEAR     47  47 100 CALM      30.09S
LAND O LAKES   CLEAR     46  46  97 CALM      30.11R FOG
RHINELANDER    CLEAR     54  51  90 N3        30.10R
PHILLIPS       CLEAR     52  52 100 CALM      30.08S
ANTIGO         CLOUDY    58  53  84 CALM      30.07S
TOMAHAWK       CLEAR     49  48  94 CALM      30.09R
MERRILL        CLOUDY    58  55  89 N3        30.07S
$$

WIZ013-073-290800-
NORTHEAST WISCONSIN

CITY           SKY/WX    TMP DP  RH WIND       PRES   REMARKS
IRON MOUNTAIN  PTCLDY    53  49  86 N3        30.06S
MARINETTE      CLOUDY   N/A N/A N/A N6        30.05R
OCONTO         CLOUDY    60  60 100 N6        30.03S
$$

WIZ017-030-035>037-045-290800-
CENTRAL WISCONSIN

CITY           SKY/WX    TMP DP  RH WIND       PRES   REMARKS
MEDFORD        CLOUDY    59  55  87 NE6       30.06S
WAUSAU         CLOUDY    62  53  72 CALM      30.04S
MOSINEE        CLOUDY    61  55  82 N6        30.06R
MARSHFIELD     CLOUDY    63  59  87 E3        30.05R
WISC RAPIDS    CLOUDY    64  55  72 NE9       30.05R
STEVENS POINT  MOCLDY    59  56  91 NE6       30.05R
WAUPACA        CLOUDY    65  54  67 NE5       30.03S
SHAWANO        CLOUDY    63  54  71 NE9       30.05S
CLINTONVILLE   CLOUDY    61  52  72 N7        30.04S
WAUTOMA        NOT AVBL
$$

WIZ038-039-048-051-290800-
FOX VALLEY

CITY           SKY/WX    TMP DP  RH WIND       PRES   REMARKS
NWS GREEN BAY  CLOUDY    61  58  90 N8        30.03R
APPLETON       CLOUDY    61  52  72 NE10      30.02R
OSHKOSH        CLOUDY    66  58  75 NE13      30.01S
FOND DU LAC    LGT RAIN  64  61  90 NE13      30.00F
$$

WIZ022-050-052-290800-
EAST CENTRAL WISCONSIN

CITY           SKY/WX    TMP DP  RH WIND       PRES   REMARKS
EPHRAIM        CLOUDY    64  57  78 NE5       30.02S
WASHINGTON ISL NOT AVBL
STURGEON BAY   CLOUDY    64  56  75 NE8       30.03S
MANITOWOC      RAIN      63  61  93 N6        30.01S
SHEBOYGAN      RAIN      63  61  93 NE12      29.99S
$$

LMZ563-521-522-541>543-290800-
LAKESHORE

STATION/POSITION TIME  TEMP    WIND        PRES    VSBY  WAVE
                       AIR SEA DIR/SP/G                  HT/PER
                 (UTC) (F)     (DEG/KT/KT) (MB)    (MI)  (FT/S)
SHEBOYGAN LKSHOR 0700   60     360/ 15/ 16 1015.8R
KEWAUNEE LKSHORE 0600   63      10/  5/  8 1015.8R
ALGOMA MARINA    0613           40/  8/ 10   N/A
NORTHPORT PIER   0600   66      20/ 11/ 16 1016.6F
N MID LAKE BUOY  0650   66 69   20/ 16/ 17 1015.6S         3/ 5
SISTER BAY LKSHO 0621   66      20/  9/ 14   N/A
CHAMBERS ISLAND  0600   66     360/ 15/ 16 1016.6F
MENOMINEE LKSHOR 0600   63     350/ 13/ 15 1016.0F
$$




USA.gov is the U.S. government's official web portal to all federal, state and local government web resources and services.